Date String (YYYY-MM-DD hh:mm:ss) UTC,Instrument flags,Ambient pressure (hPa),Sample flow (lpm),Bypass flow (lpm),Sample temperature (°C),Ambient temperature (°C),ASC tube jacket temperature (°C),LED temperature (°C),Box temperature (°C),Sample RH (%),Span deviation,Mass concentration (μg/m³),Mass concentration (μg/m³),Mass concentration (μg/m³)
DateTimeUTC,F1_M11,P_M11,Q1_M11,Q2_M11,T1_M11,T2_M11,T3_M11,T4_M11,T5_M11,U1_M11,ZSPAN_M11,X0_M11,X2_M11,X1_M11
2023-03-05 09:00:00,,0815.1,5.02,0.00,22.4,22.5,00.0,31.1,24.3,14.2,-000.5,0019.26,0012.37,0011.44
2023-03-05 09:01:00,,0815.1,5.00,0.00,22.4,22.6,00.0,31.1,24.3,14.1,-000.8,0019.25,0012.38,0011.44
2023-03-05 09:02:00,,0815.0,5.01,0.00,22.4,21.9,00.0,31.1,24.1,14.1,-000.6,0018.54,0012.34,0011.44
2023-03-05 09:03:00,,0815.1,4.99,0.00,22.3,21.4,00.0,31.1,23.9,14.2,-000.7,0017.81,0012.30,0011.46
2023-03-05 09:04:00,,0815.0,5.00,0.00,22.2,20.9,00.0,31.1,23.8,14.3,-001.1,0017.58,0012.28,0011.47
2023-03-05 09:05:00,,0814.8,5.00,0.00,22.2,20.5,00.0,31.1,23.7,14.3,-001.3,0017.53,0012.26,0011.47
2023-03-05 09:06:00,,0815.1,5.00,0.00,22.1,20.2,00.0,31.0,23.4,14.3,-001.2,0016.72,0012.26,0011.48
2023-03-05 09:07:00,,0815.1,5.01,0.00,22.0,19.9,00.0,31.0,23.3,14.3,-001.2,0016.56,0012.25,0011.49
2023-03-05 09:08:00,,0814.7,5.01,0.00,21.9,19.8,00.0,31.0,23.3,14.3,-001.1,0016.48,0012.26,0011.50
2023-03-05 09:09:00,,0814.9,5.02,0.00,21.9,20.4,00.0,30.9,23.5,14.3,-000.8,0016.48,0012.30,0011.54
2023-03-05 09:10:00,,0814.9,5.00,0.00,22.0,21.7,00.0,30.9,23.8,14.2,-000.6,0016.49,0012.29,0011.53
2023-03-05 09:11:00,,0814.9,5.00,0.00,22.1,22.5,00.0,30.9,24.1,14.1,-000.5,0016.43,0012.23,0011.49
2023-03-05 09:12:00,,0814.9,4.97,0.00,22.2,22.1,00.0,30.9,24.0,14.0,-000.4,0016.52,0012.22,0011.48
2023-03-05 09:13:00,,0814.8,4.99,0.00,22.1,21.5,00.0,30.9,23.9,14.1,-000.4,0016.58,0012.20,0011.45
2023-03-05 09:14:00,,0814.8,5.01,0.00,22.1,20.9,00.0,30.9,23.7,14.2,-000.3,0016.56,0012.16,0011.41
2023-03-05 09:15:00,,0814.9,5.01,0.00,22.0,20.5,00.0,30.9,23.5,14.2,-000.1,0016.46,0012.10,0011.37
2023-03-05 09:16:00,,0814.9,4.99,0.00,21.9,20.2,00.0,30.9,23.4,14.3,-000.1,0016.29,0012.05,0011.35
2023-03-05 09:17:00,,0814.9,5.00,0.00,21.9,19.9,00.0,30.9,23.3,14.3,-000.5,0016.33,0012.02,0011.34
2023-03-05 09:18:00,,0814.9,5.00,0.00,21.8,19.7,00.0,30.8,23.2,14.4,-000.6,0016.34,0011.97,0011.31
2023-03-05 09:19:00,,0814.9,5.00,0.00,21.7,19.6,00.0,30.8,23.1,14.4,-000.6,0016.54,0011.96,0011.28
2023-03-05 09:20:00,,0814.9,5.02,0.00,21.7,20.6,00.0,30.7,23.4,14.4,-000.8,0016.60,0011.96,0011.26
2023-03-05 09:21:00,,0814.9,5.00,0.00,21.9,21.8,00.0,30.7,23.7,14.3,-000.8,0016.63,0011.97,0011.26
2023-03-05 09:22:00,,0814.9,5.03,0.00,22.0,22.4,00.0,30.7,23.9,14.2,-000.8,0016.70,0012.00,0011.28
2023-03-05 09:23:00,,0814.9,4.99,0.00,22.0,21.8,00.0,30.8,23.7,14.1,-000.9,0016.71,0012.03,0011.32
2023-03-05 09:24:00,,0814.9,5.01,0.00,22.0,21.2,00.0,30.8,23.6,14.1,-000.9,0017.00,0012.10,0011.35
2023-03-05 09:25:00,,0814.9,5.00,0.00,21.9,20.7,00.0,30.8,23.5,14.1,-000.8,0017.20,0012.12,0011.36
2023-03-05 09:26:00,,0814.9,5.00,0.00,21.9,20.4,00.0,30.8,23.4,14.1,-000.8,0017.23,0012.17,0011.38
2023-03-05 09:27:00,,0814.9,5.00,0.00,21.8,20.1,00.0,30.7,23.3,14.1,-000.7,0017.38,0012.25,0011.42
2023-03-05 09:28:00,,0814.9,5.00,0.00,21.8,19.9,00.0,30.7,23.3,14.1,-000.5,0017.62,0012.35,0011.46
2023-03-05 09:29:00,,0815.1,5.00,0.00,21.7,19.7,00.0,30.7,23.2,14.2,-000.5,0018.02,0012.46,0011.51
2023-03-05 09:30:00,,0814.9,5.00,0.00,21.7,19.6,00.0,30.7,23.2,14.2,-000.6,0018.07,0012.52,0011.55
2023-03-05 09:31:00,,0815.1,5.02,0.00,21.7,20.4,00.0,30.6,23.3,14.1,-000.4,0018.41,0012.54,0011.56
2023-03-05 09:32:00,,0815.1,5.01,0.00,21.8,21.7,00.0,30.6,23.6,14.0,-000.3,0018.53,0012.58,0011.59
2023-03-05 09:33:00,,0815.2,5.01,0.00,21.9,22.6,00.0,30.6,23.9,13.9,-000.3,0018.59,0012.60,0011.60
2023-03-05 09:34:00,,0815.2,5.02,0.00,22.0,22.6,00.0,30.7,23.9,13.7,-000.2,0018.85,0012.56,0011.53
2023-03-05 09:35:00,,0815.0,4.97,0.00,22.0,21.8,00.0,30.7,23.8,13.7,0000.1,0019.26,0012.47,0011.46
2023-03-05 09:36:00,,0814.9,5.01,0.00,21.9,21.2,00.0,30.7,23.5,13.7,0000.1,0019.09,0012.39,0011.41
2023-03-05 09:37:00,,0814.9,5.01,0.00,21.9,20.6,00.0,30.7,23.4,13.6,0000.1,0019.01,0012.32,0011.33
2023-03-05 09:38:00,,0814.9,4.99,0.00,21.8,20.2,00.0,30.7,23.3,13.6,0000.3,0019.42,0012.18,0011.21
2023-03-05 09:39:00,,0814.9,5.00,0.00,21.8,19.9,00.0,30.7,23.2,13.5,0000.4,0019.18,0011.95,0011.03
2023-03-05 09:40:00,,0814.9,5.01,0.00,21.7,19.7,00.0,30.6,23.1,13.5,0000.6,0019.46,0011.76,0010.86
2023-03-05 09:41:00,,0814.9,5.01,0.00,21.6,19.5,00.0,30.6,23.0,13.5,0000.5,0019.38,0011.61,0010.71
2023-03-05 09:42:00,,0814.9,5.01,0.00,21.5,19.3,00.0,30.6,22.9,13.6,0000.5,0018.88,0011.46,0010.58
2023-03-05 09:43:00,,0814.9,5.01,0.00,21.5,19.7,00.0,30.5,23.0,13.6,0000.4,0018.49,0011.26,0010.43
2023-03-05 09:44:00,,0814.9,4.99,0.00,21.6,21.1,00.0,30.5,23.4,13.6,0000.4,0018.24,0011.08,0010.29
2023-03-05 09:45:00,,0814.9,5.01,0.00,21.8,22.2,00.0,30.5,23.7,13.5,0000.5,0018.50,0010.94,0010.20
2023-03-05 09:46:00,,0814.9,5.04,0.00,21.9,22.6,00.0,30.6,23.8,13.5,0000.1,0018.00,0010.87,0010.13
2023-03-05 09:47:00,,0814.9,5.02,0.00,21.9,21.9,00.0,30.6,23.7,13.5,-000.0,0017.95,0010.82,0010.07
2023-03-05 09:48:00,,0814.9,5.00,0.00,21.9,21.2,00.0,30.6,23.5,13.5,-000.1,0018.24,0010.77,0010.03
2023-03-05 09:49:00,,0814.9,5.00,0.00,21.8,20.8,00.0,30.6,23.4,13.6,-000.3,0017.80,0010.75,0010.02
2023-03-05 09:50:00,,0814.9,4.99,0.00,21.8,20.4,00.0,30.6,23.3,13.7,-000.6,0017.74,0010.79,0010.05
2023-03-05 09:51:00,,0814.9,5.00,0.00,21.7,20.1,00.0,30.6,23.2,13.7,-000.6,0016.90,0010.80,0010.09
2023-03-05 09:52:00,,0814.9,4.99,0.00,21.7,19.9,00.0,30.6,23.2,13.8,-000.4,0016.56,0010.78,0010.13
2023-03-05 09:53:00,,0814.9,5.00,0.00,21.6,19.7,00.0,30.6,23.1,13.9,-000.4,0016.72,0010.80,0010.19
2023-03-05 09:54:00,,0814.9,4.99,0.00,21.6,19.5,00.0,30.5,23.0,13.9,-000.6,0016.88,0010.87,0010.25
2023-03-05 09:55:00,,0814.9,5.01,0.00,21.5,19.4,00.0,30.5,22.9,14.0,-000.5,0016.91,0010.94,0010.30
2023-03-05 09:56:00,,0814.9,5.01,0.00,21.5,20.1,00.0,30.5,23.1,14.1,-000.5,0016.29,0011.01,0010.35
2023-03-05 09:57:00,,0814.9,4.98,0.00,21.6,21.4,00.0,30.5,23.4,14.1,-000.3,0016.03,0011.04,0010.40
2023-03-05 09:58:00,,0814.8,5.00,0.00,21.7,22.3,00.0,30.5,23.6,14.0,-000.1,0015.88,0011.07,0010.44
2023-03-05 09:59:00,,0814.8,4.99,0.00,21.8,21.9,00.0,30.5,23.6,14.0,0000.1,0015.60,0011.15,0010.49
